NOAA 17 DEB, 48706

Orbit data source: Space-Track

NOAA 17 DEB, 48706 is space debris in SSO originally from a launch on Mon, 24 Jun 2002 UTC launched from the Air Force Western Test Range (AFWTR). Debris objects in space refer to the collection of defunct objects orbiting the Earth. Examples of debris include non-operational satellites, rocket bodies, and fragments generated from explosions, collisions, or faulty payload assembly.

Loading next visibility...
Identifier
48706, 2002-032AP
Orbit
SSO
Country
Flag of USUS
Related business
Manufacturer
Unknown
Mission
Spacecraft
Bus & Motor
Unknown
Mass
Unknown
Launch date (UTC)
2002-06-24 (23 years ago)
Launch vehicle
Unknown
Launch site
Air Force Western Test Range (AFWTR)
Object type
Payload
Rocket body
Debris
Shape & HBR
Unknown shape, 0.1 m
Radar Cross Section
Small (<0.1 m²)

Expand to show TLE details & history
Last TLE update: 2 days ago

TLE from 2 days ago
0 NOAA 17 DEB
1 48706U 02032AP  25348.09415456  .00009175  00000-0  38083-2 0  9994
2 48706  98.9243 293.6653 0102613 317.8543  41.4777 14.23875496240858
Epoch: 2025-12-14T02:15Z
TLE epoch observation values (Epoch: 2025-12-14T02:15:34.953Z)
Latitude
-0.00006°
Longitude
176.75766°
Altitude
760.235 km
Speed
7.503 km/s
True Right ascension
19h 34m 39s
True Declination
0° 00' 00"
Sunlit
Object was in daylight at epoch
Visualization orbit readout
Latitude
Unknown
Longitude
Unknown
Altitude
Unknown
Speed
Unknown
Apparent Right ascension
Unknown
Apparent Declination
Unknown
Sunlit
N/A
Visualization observer readout
Local Sidereal Time
13:22:53
Azimuth
Unknown
Elevation
Unknown
Doppler factor
Unknown
Orbital elements
Apogee altitude
883.193 km
Perigee altitude
735.685 km
Semi-major axis
7,187.576 km
Eccentricity
0.01026
Inclination
98.9243°
RAAN
293.6653°
Arg. of periapsis
317.8543°
True anomaly
42.26403°
Mean anomaly
41.4777°
Eccentric anomaly
41.87011°
Mean motion
3.5618 °/min
Orbital period
101.07 mins
BSTAR
0.0038083
Loading maneuver chart data...
Computing Atmospheric mass density...
Loading historical data...
Loading historical data...
Loading historical data...
Loading historical data...
Loading historical data...
Loading historical data...
Loading historical data...

Documentation

Showing up to 5 results
|